Terminal Aerodrome Forecast
Issued by NWS Knoxville/Tri Cities, TN

Home | Current Version | Previous Version | Text Only | Print | Product List | Glossary On
Versions: 1 2 3 4 5 6 7 8 9 10 11 12 13 14 15 16 17 18 19 20 21 22 23 24 25
000
FTUS44 KMRX 301721
TAFTYS
TAF
KTYS 301721Z 3018/3118 06005KT P6SM VCSH SCT050 BKN100
     FM310200 00000KT P6SM VCSH BKN050
     FM310700 00000KT P6SM BKN040
     FM311400 04003KT P6SM BKN050=

USA.gov is the U.S. government's official web portal to all federal, state and local government web resources and services.